www.pogodaiklimat.ru

Погода и климат >> Архив погоды >> Россия >> Ненецкий АО >> Мыс Константиновский


ПОГОДА на Мысе Константиновском

  • Прогноз погоды на Мысе Константиновском
  • Монитор погоды на Мысе Константиновском

АРХИВ ПОГОДЫ на Мысе Константиновском

Время (UTC), дата Ветер
(напр.,м/с)
 
Видим.   Явления Облачность Т
(С)
Тd
(С)
f
(%)
Тe
(С)
Тes
(С)
Комфортность P
(гПа)
Po
(гПа)
Тmin
(С)
Tmax
(С)
R
(мм)
R24
(мм)
S
(см)
06 9.01 С 5 10 км {метель} 6/3 300 м
[Sc Ac trans]
-10.1 -14.5 70 -18 -18 1010.0 1009.2
09 9.01 Ю 4 10 км 9/9 600 м
[Sc]
-17.0 -18.9 85 -25 -25 1012.4 1011.6
12 9.01 СЗ 5 10 км 6/4 600 м
[Sc Ac trans]
-9.7 -14.9 66 -17 -17 1013.3 1012.5
15 9.01 СЗ 6 10 км 8/8 300 м
[Sc]
-9.8 -12.4 81 -18 -18 1014.2 1013.4 -9.5
18 9.01 СЗ 5
{10}
4000 м слаб. ливневой снег {метель} 9/9 300 м
[Cb cap]
-9.7 -11.8 85 -18 -18 1015.0 1014.2
21 9.01 Ю 5 4000 м слаб. ливневой снег 8/8 300 м
[Cb cap]
-15.6 -16.9 90 -25 -25 1015.4 1014.6
00 10.01 ЮЗ 6 4000 м слаб. ливневой снег 8/8 300 м
[Cb cap]
-16.5 -18.4 85 -26 -26 1015.0 1014.2
03 10.01 ЮЗ 6 4000 м слаб. ливневой снег 8/8 300 м
[Cb cap]
-15.7 -17.6 85 -25 -25 1013.8 1013.0 -16.6 0.4 32
06 10.01 ЮЗ 5 10 км {ливн. осадки} 9/9 600 м
[Sc]
-17.2 -19.1 85 -27 -27 1013.6 1012.8 -17.4
09 10.01 ЮЗ 6 10 км 9/9 600 м
[Sc]
-14.7 -16.7 85 -24 -24 1013.8 1013.0
12 10.01 Ю 6 10 км 9/9 300 м
[Sc]
-15.6 -17.5 85 -25 -25 1014.2 1013.4
15 10.01 ЮЗ 6 10 км 10/10 300 м
[Sc]
-15.1 -17.8 80 -25 -25 1012.5 1011.7 -14.6 0.0
18 10.01 ЮЗ 9-11
{12}
10 км сильный позёмок 9/8 600 м
[Sc Ac trans]
-15.5 -17.4 85 -27 -27 1011.2 1010.4
21 10.01 Ю 9-10
{12}
10 км сильный позёмок 8/4 600 м
[Sc Ac trans Cs]
-17.2 -19.1 85 -29 -29 1009.7 1008.9
00 11.01 Ю 11-12
{15}
200 м сильная метель 4/3 600 м
[Sc Cs]
-19.8 -21.7 85 -34 -34 опасность
обморожения
1006.3 1005.5
03 11.01 Ю 12-14
{16}
200 м сильная метель 3/3 600 м
[Sc]
-21.2 -23.1 85 -36 -36 опасность
обморожения
1003.0 1002.2 -21.2 31
06 11.01 Ю 11-13
{16}
200 м 10/10 300 м
[Sc]
-17.8 -19.7 85 -31 -31 опасность
обморожения
999.9 999.1
09 11.01 Ю 13-16
{18}
200 м слаб. снег {метель} 10/10 300 м
[Frnb Ns]
-15.2 -16.5 90 -29 -29 997.2 996.4
12 11.01 Ю 15-18
{21}
50 км сильная метель ?/? -12.3 -13.6 90 -25 -25 993.6 992.8
15 11.01 Ю 17-20
{21}
50 км сильная метель ?/? -12.6 -13.9 90 -26 -26 991.5 990.7 -12.0 2
18 11.01 Ю 14-18
{21}
50 км сильная метель ?/? -13.1 -14.4 90 -26 -26 990.4 989.6
21 11.01 Ю 14-17
{20}
50 км сильная метель ?/? -12.6 -13.9 90 -25 -25 988.8 988.0
00 12.01 Ю 12-15
{19}
50 км сильная метель ?/? -12.0 -13.3 90 -24 -24 987.4 986.6
03 12.01 Ю 12-14
{18}
50 км сильная метель ?/? -10.4 -11.0 95 -22 -22 986.0 985.2 -13.3 6 34
06 12.01 Ю 11-13
{16}
200 м сильная метель 10/10 300 м
[Sc]
-10.2 -11.5 90 -21 -21 985.5 984.7
09 12.01 Ю 11-12
{15}
200 м слаб. снег {метель} 9/4 300 м
[Frnb As trans]
-9.8 -11.0 91 -21 -21 986.3 985.5
12 12.01 Ю 8
{11}
10 км позёмок {снег} 9/9 300 м
[Sc]
-8.9 -10.0 92 -19 -19 986.0 985.2
15 12.01 Ю 11-13
{15}
200 м слаб. ливневой снег {метель} 10/10 300 м
[Cb cap]
-8.8 -9.9 92 -20 -20 985.9 985.1 -8.8 0.5
18 12.01 Ю 10-12
{14}
200 м слаб. ливневой снег {метель} 10/10 300 м
[Cb cap]
-9.2 -10.3 92 -20 -20 985.5 984.7
21 12.01 Ю 8-10
{13}
4000 м слаб. ливневой снег {метель} 10/10 300 м
[Cb cap]
-8.8 -9.9 92 -18 -18 985.1 984.3
00 13.01 Ю 7
{10}
4000 м слаб. снег 10/10 300 м
[Frnb Ns]
-8.6 -9.3 95 -18 -18 984.2 983.4
03 13.01 Ю 8
{10}
4000 м слаб. снег {метель} 10/10 300 м
[Frnb Ns]
-10.2 -11.5 90 -20 -20 983.8 983.0 -10.4 3 34
06 13.01 Ю 8
{11}
4000 м слаб. снег {метель} 10/10 300 м
[Frnb Ns]
-11.0 -12.3 90 -21 -21 983.6 982.8 -11.5
09 13.01 Ю 8
{11}
4000 м слаб. ливневой снег 8/4 300 м
[Cb cap Cs]
-11.2 -12.5 90 -21 -21 983.4 982.6
12 13.01 Ю 8
{10}
4000 м слаб. ливневой снег 8/5 300 м
[Cb cap Cs]
-10.7 -12.0 90 -21 -21 983.0 982.2
15 13.01 Ю 8
{10}
4000 м слаб. ливневой снег {метель} 10/10 300 м
[Cb cap]
-11.1 -12.4 90 -21 -21 982.8 982.0 -10.1 0.4
18 13.01 Ю 6
{10}
10 км в посл. час ливневой снег {метель} 4/3 300 м
[Cb cap Cs]
-12.1 -13.4 90 -21 -21 982.7 981.9
21 13.01 Ю 7 4000 м слаб. ливневой снег {метель} 9/6 300 м
[Cb cap Cs]
-12.0 -13.3 90 -21 -21 983.3 982.5
00 14.01 Ю 5 4000 м слаб. ливневой снег {метель} 3/3 300 м
[Cb cap]
-13.2 -14.5 90 -22 -22 983.5 982.7
03 14.01 Ю 6 10 км {ливн. осадки} 4/4 300 м
[Sc]
-12.8 -14.8 85 -22 -22 984.2 983.4 -13.4 1 35
06 14.01 Ю 6 10 км {ливн. осадки} 9/9 300 м
[Sc]
-13.6 -14.9 90 -23 -23 984.7 983.9 -14.2
09 14.01 Ю 8
{10}
10 км позёмок 6/3 300 м
[Cb cap Cs]
-13.4 -14.7 90 -24 -24 985.9 985.1
12 14.01 Ю 6 10 км {метель} 9/6 300 м
[Sc Ac trans]
-13.4 -14.7 90 -23 -23 987.0 986.2
15 14.01 Ю 6 10 км 8/5 600 м
[Sc Cs]
-12.4 -13.7 90 -21 -21 988.1 987.3 -12.4
18 14.01 ЮЗ 8 4000 м слаб. ливневой снег {метель} 8/4 300 м
[Cb cap Cs]
-9.6 -10.4 94 -19 -19 989.4 988.6
21 14.01 ЮЗ 8-10
{10}
4000 м слаб. ливневой снег {метель} 6/6 300 м
[Cb cap]
-9.1 -9.8 95 -19 -19 990.6 989.8
00 15.01 ЮЗ 10-12
{15}
200 м слаб. ливневой снег {метель} 10/10 300 м
[Cb cap]
-8.8 -9.5 95 -19 -19 991.4 990.6
03 15.01 ЮЗ 10-12
{16}
200 м слаб. ливневой снег {метель} 10/10 300 м
[Cb cap]
-8.7 -9.4 95 -19 -19 992.3 991.5 -12.4 1 36
06 15.01 ЮЗ 10-12
{14}
200 м слаб. ливневой снег {метель} 10/10 300 м
[Cb cap]
-9.5 -10.3 94 -20 -20 993.5 992.7
09 15.01 ЮЗ 7
{14}
4000 м слаб. ливневой снег {метель} 9/8 300 м
[Cb cap Ac trans Cs]
-11.1 -12.4 90 -20 -20 994.7 993.9
12 15.01 ЮЗ 7
{14}
4000 м слаб. ливневой снег {метель} 9/8 300 м
[Cb cap Ac trans Cs]
-11.1 -12.4 90 -20 -20 994.7 993.9
15 15.01 ЮЗ 7 4000 м слаб. ливневой снег {метель} 9/8 300 м
[Cb cap Cs]
-11.5 -12.8 90 -21 -21 995.0 994.2
18 15.01 ЮЗ 5 10 км {ливн. осадки, метель} 9/9 300 м
[Sc]
-11.6 -12.9 90 -20 -20 995.8 995.0 -8.5 0.7
21 15.01 Ю 6 4000 м слаб. ливневой снег 9/6 300 м
[Cb cap Ac trans Cs]
-11.8 -12.4 95 -21 -21 997.3 996.5
00 16.01 ЮЗ 4 4000 м слаб. ливневой снег {метель} 9/8 300 м
[Cb cap Ac trans]
-11.7 -12.3 95 -19 -19 998.4 997.6
03 16.01 ЮЗ 2 4000 м слаб. ливневой снег 10/10 300 м
[Cb cap]
-12.7 -14.0 90 -17 -17 999.3 998.5 -13.0 1 39

 

Местоположение метеостанции Мыс Константиновский (Ненецкий АО, Россия): широта 68.55 долгота 55.50 высота над уровнем моря 7 м.

В архиве по умолчанию представлена погода на Мысе Константиновском за последнюю неделю. Архивные данные за месяц целиком и за предыдущие месяцы, начиная с января 2011 года, Вы можете получить, выбрав интересующий диапазон дат из раскрывающегося списка и нажав кнопку "Ввод!".


*Определитесь, кто Вы:
робот инопланетянин человек

Внимание! Время в таблицах - всемирное. Для получения местного времени необходимо прибавить поправку, которая равна 3 ч.

Смотрите также архив погоды в соседних городах и на ближайших метеорологических станциях:

Погода в Ходоварихе (Ненецкий АО, Россия) (82 км)
Погода в Варандее (Ненецкий АО, Россия) (106 км)
Погода в Нарьян-Маре (Ненецкий АО, Россия) (145 км)
Погода в Хорей-Вере (Ненецкий АО, Россия) (163 км)
Погода в Сенгейском Шаре (Ненецкий АО, Россия) (173 км)
Погода на Мысе Белый Нос (Ненецкий АО, Россия) (220 км)
Погода в Коткино (Ненецкий АО, Россия) (250 км)
Погода в Бугрино (Ненецкий АО, Россия) (251 км)
Погода в Имени Федорова (Ненецкий АО, Россия) (253 км)
Погода на Колгуевом Острове (Ненецкий АО, Россия) (278 км)

Пояснения к столбцам:

Ветер - указаны скорость ветра в м/с - средняя за 10 мин, порывы в срок и между сроками (в фигурных скобках) и направление, откуда дует ветер: С - северный, СВ - северо-восточный, В - восточный, ЮВ - юго-восточный, Ю - южный, ЮЗ - юго-западный, З - западный, СЗ - северо-западный.
Видимость - горизонтальная дальность видимости в метрах или километрах. При видимости от 1 до 10 км при отсутствии осадков обычно наблюдается дымка, при ухудшении видимости до 1 км и менее - туман. В сухую погоду видимость может ухудшаться дымом, пылью или мглою.
Явления - указаны атмосферные явления, наблюдавшиеся в срок или в последний час перед сроком; фигурными скобками обозначены явления, наблюдавшиеся между сроками (за 1-3 часа до срока); квадратными скобками обозначены град или гололедные отложения с указанием их диаметра в мм.
Облачность - указаны через наклонную черту общая и нижняя облачность в баллах и высота нижней границы облаков в метрах; квадратными скобками обозначены формы облаков: Ci - перистые, Cs - перисто-слоистые, Cc - перисто-кучевые, Ac - высококучевые, As - высокослоистые, Sc - слоисто-кучевые, Ns - слоисто-дождевые, Cu - кучевые, Cb - кучево-дождевые. Подробнее классификацию облаков см. в Атласе облаков (PDF).
T - Температура воздуха - температура, измеренная на высоте 2 м над землей.
Td - Температура точки росы - температура, при понижении до которой содержащийся в воздухе водяной пар достигнет насыщения.
f - Относительная влажность воздуха - влажноcть воздуха, измеренная на высоте 2 м над землей.
Te - Эффективная температура - температура, которую ощущает одетый по сезону человек в тени. Характеристика душности погоды. При расчете учитывается влияние влажности воздуха и скорости ветра на теплоощущения человека.
Tes - Эффективная температура на солнце - температура, которую ощущает человек, с поправкой на солнечный нагрев. Характеристика знойности погоды. Зависит от высоты солнца над горизонтом, облачности и скорости ветра. Ночью, в пасмурную погоду, а также при ветре 12 м/с и более поправка равна нулю.
P - Атмосферное давление - приведенное к уровню моря атмосферное давление.
Po - Атмосферное давление - измеренное на уровне метеостанции атмосферное давление.
Tmin - Минимальная температура - минимум температуры воздуха на высоте 2 м над землей.
Tmax - Максимальная температура - максимум температуры воздуха на высоте 2 м над землей.
R - Количество осадков - Количество выпавших осадков за период времени, мм. При наведении курсора мыши на число - период времени, за который выпало указанное количество осадков.
R24 - Количество осадков - Количество выпавших осадков за 24 часа, мм.
S - Снежный покров - Высота снежного покрова, см. При наведении курсора мыши на число - состояние снежного покрова и степень покрытия местности в баллах.